www.pogodaiklimat.ru

ПОГОДА в Оскода Тауншип, MI

  • Прогноз погоды в Оскода Тауншип
  • Монитор погоды в Оскода Тауншип
  • Климат в Оскода Тауншип

АРХИВ ПОГОДЫ в Оскода Тауншип

Время (UTC), дата Ветер
(напр.,м/с)
 
Видим.   Явления Облачность Т
(С)
Тd
(С)
f
(%)
Тe
(С)
Тes
(С)
Комфортность

P
(гПа)

Po
(гПа)
Тmin
(С)
Tmax
(С)
R
(мм)
SD
(см)
10:35 26.03   16 км    ясно  -7.7  -13.1  65  -8  -8      1006.7         
10:55 26.03   16 км    ясно  -8.2  -12.9  69  -9  -9      1007.0  -9.0  -4.7     
10:56 26.03   16 км    ясно  -8.1  -12.8  69  -9  -9      1007.0  -9.0  -4.7     
11:15 26.03 СЗ  16 км    ясно  -6.1  -11.3  67  -9  -9      1007.3         
11:35 26.03 СЗ  16 км    ясно  -4.6  -10.8  62  -9  -9      1007.3         
11:55 26.03 СЗ  16 км    ясно  -3.6  -10.3  60  -7  -6      1007.6         
11:56 26.03 СЗ  16 км    ясно  -3.5  -10.3  59  -6  -6      1007.6         
12:15 26.03 С  16 км    ясно  -2.5  -9.2  60  -5  -3      1008.0         
12:35 26.03 СЗ  16 км    ясно  -1.5  -8.5  59  -6  -4      1008.0         
12:36 26.03 СЗ  16 км    ясно  -1.4  -8.5  58  -6  -4      1008.0         
12:55 26.03 С  16 км    ясно  -0.5  -7.7  58  -3  -1      1008.0         
13:15 26.03 СВ  16 км    ясно  0.0  -7.6  57  -4  +1      1008.3         
14:15 26.03   16 км    ясно  +1.2  -9.7  44  +1  +11  опасность
простуды 
  1008.3         
14:35 26.03 В  16 км    ясно  +1.6  -9.4  44  -2  +6      1008.3         
14:55 26.03 В  16 км    ясно  +1.7  -7.7  50  -2  +3      1008.3         
14:56 26.03 В  16 км    ясно  +1.8  -7.6  50  -2  +4      1008.3         
15:15 26.03 В  16 км    ясно  +1.8  -7.5  50  -1  +8      1008.3         
15:35 26.03 В  16 км    ясно  +2.5  -6.6  51  -2  +5      1008.3         
15:36 26.03 В  16 км    ясно  +2.4  -6.7  51  -2  +6      1008.3         
15:55 26.03 В  16 км    ясно  +2.5  -6.4  52  -2  +5      1008.3         
16:15 26.03 В  16 км    ясно  +2.0  -6.0  55  -3  +3      1008.0         
16:16 26.03 ЮВ  16 км    ясно  +2.0  -6.1  55  -3  +4      1008.0         
16:35 26.03 В  16 км    ясно  +2.2  -5.8  55  -3  +5      1008.0         
16:36 26.03 В  16 км    ясно  +2.2  -5.8  55  -3  +5      1008.0         
16:55 26.03 ЮВ  16 км    ясно  +2.1  -6.0  55  -2  +6      1008.0  -7.5  +2.5  0.8   
17:15 26.03 В  16 км    ясно  +2.7  -5.9  53  -2  +7      1007.6         
17:35 26.03 В  16 км    ясно  +2.7  -5.8  53  -1  +8      1007.6         
17:36 26.03 ЮВ  16 км    ясно  +2.8  -5.6  54  -1  +7      1007.6         
17:55 26.03 ЮВ  16 км    ясно  +3.5  -6.4  48  -0  +8      1007.3         
18:15 26.03 ЮВ  16 км    ясно  +3.8  -6.4  47  -0  +6      1007.0         
18:35 26.03 В  16 км    ясно  +3.3  -5.9  51  -1  +4      1007.0         
18:36 26.03 ЮВ  16 км    ясно  +3.4  -5.7  51  -1  +4      1007.0         
18:55 26.03 В  16 км    ясно  +3.4  -7.2  46  -1  +4      1006.7         
19:15 26.03 ЮВ  16 км    ясно  +3.2  -7.2  46  -1  +4      1006.7         
19:35 26.03 ЮВ  16 км    ясно  +3.2  -7.8  44  -1  +3      1006.7         
19:36 26.03 ЮВ  16 км    ясно  +3.3  -7.7  44  -1  +3      1006.7         
19:55 26.03 ЮВ  16 км    ясно  +2.9  -8.3  44  -2  +2      1006.3         
19:56 26.03 ЮВ  16 км    ясно  +3.0  -8.3  43  -1  +4      1006.3         
20:15 26.03 ЮВ  16 км    ясно  +2.9  -8.8  42  -1  +2      1006.0         
20:16 26.03 ЮВ  16 км    ясно  +2.9  -8.9  42  -1  +2      1006.0         
20:35 26.03 ЮВ  16 км    ясно  +2.9  -8.5  43  -1  +2      1006.0         
20:55 26.03 Ю  16 км    ясно  +3.0  -9.0  41  -1  +2      1006.0         
21:15 26.03 Ю  16 км    ясно  +2.7  -10.0  39  -1  0      1006.0         
21:16 26.03 Ю  16 км    ясно  +2.7  -10.0  39  -1  +1      1006.0         
21:35 26.03 Ю  16 км    ясно  +2.3  -9.8  40  -1  0      1006.0         
21:55 26.03 Ю  16 км    ясно  +2.0  -10.0  41  -1  0      1006.0         
22:15 26.03 Ю  16 км    ясно  +1.5  -10.2  41  -2  -2      1005.7         
22:16 26.03 Ю  16 км    ясно  +1.5  -10.2  41  -2  -2      1005.7         

 

Местоположение метеостанции Oscoda-Wurtsmith Airport: широта 44.4500 долгота -83.3667 высота над уровнем моря 193 м.

В архиве по умолчанию представлена погода в Оскода Тауншип за последние 1-2 суток. Обновление информации о фактической погоде в базе происходит ежечасно! Архивные данные за месяц целиком и за предыдущие месяцы Вы можете получить, выбрав интересующий диапазон дат из раскрывающегося списка и нажав кнопку "Ввод!".

Внимание! Архив погоды МЕТАР в базе сайта хранится не более 60 дней. Нет смысла пытаться выбрать более раннюю дату.

Внимание! Время в таблицах - всемирное. Для получения местного времени необходимо прибавить поправку, которая в Оскода Тауншип равна -5 ч.

Ветер - указаны скорость ветра в м/с и направление, откуда дует ветер: С - северный, СВ - северо-восточный, В - восточный, ЮВ - юго-восточный, Ю - южный, ЮЗ - юго-западный, З - западный, СЗ - северо-западный.
Видимость - горизонтальная дальность видимости в метрах или километрах. При видимости от 1 до 10 км при отсутствии осадков обычно наблюдается дымка, при ухудшении видимости до 1 км и менее - туман. В сухую погоду видимость может ухудшаться дымом, пылью или мглою.
Атмосферные явления - указаны явления, наблюдавшиеся в указанный момент времени.
Облачность - указаны через наклонную черту верхняя и нижняя облачность в баллах и высота нижней границы облаков в метрах. Внимание: облачность, как и прочие метеорологические величины в США измеряются автоматическими метеостанциями. Указанные значения в баллах носят условный характер и показывают процент времени, в течение которого, в среднем, лазерный луч высотомера отражался от облаков обратно.
T - Температура воздуха - температура, измеренная на высоте 2 м над землей.
Td - Температура точки росы - температура, при понижении до которой содержащийся в воздухе водяной пар достигнет насыщения.
f - Относительная влажность воздуха - влажноcть воздуха, измеренная на высоте 2 м над землей.
Te - Эффективная температура - температура, которую ощущает одетый по сезону человек в тени. Характеристика душности погоды. При расчете учитывается влияние влажности воздуха и скорости ветра на теплоощущения человека.
Tes - Эффективная температура на солнце - температура, которую ощущает человек, с поправкой на солнечный нагрев. Характеристика знойности погоды. Зависит от высоты солнца над горизонтом, облачности и скорости ветра. Ночью, в пасмурную погоду, а также при ветре 12 м/с и более поправка равна нулю.
P - Атмосферное давление - приведенное к уровню моря атмосферное давление.
Po - Атмосферное давление - измеренное на уровне метеостанции атмосферное давление.
Tmin - Минимальная температура - минимум температуры воздуха на высоте 2 м над землей.
Tmax - Максимальная температура - максимум температуры воздуха на высоте 2 м над землей.
R - Количество осадков - Количество выпавших осадков за 3 или 6 часов, мм.
SD - Снежный покров - Высота снежного покрова, см.